Home > Weather > Stäfa > Past weeks

Flag for Switzerland Past Weather in Stäfa, Zurich, Switzerland — Yesterday and Last 2 Weeks

Now
62 °F

Cool.


Feels Like: 62 °F
Forecast: 54 / 72 °F
Wind: 7 mph from West

Location: Zuerich-Fluntern

Current Time: May 31, 2016 at 12:09:17 PM

Latest Report: May 31, 2016 at 11:00 AM


Visibility: N/A

Pressure: 29.85 "Hg

Humidity: 62%

Dew Point: 49 °F

Location of StäfaLocation

Past Weather in Stäfa — Graph

°F

Stäfa Temperature Yesterday

Maximum temperature yesterday: 64 °F (at 1:00 PM)
Minimum temperature yesterday: 54 °F (at 4:00 AM)
Average temperature yesterday: 58 °F

High & Low Weather Summary for the Past Weeks

 TemperatureHumidityPressure
High79 °F (May 27, 6:00 PM)96% (May 24, 5:00 AM)30.21 "Hg (May 24, 5:00 AM)
Low42 °F (May 23, 10:00 AM)28% (May 21, 4:00 PM)29.70 "Hg (May 22, 4:00 PM)
Average56 °F75%29.95 "Hg
* Reported May 16 5:00 PM — May 31 11:00 AM, Stäfa, Weather by CustomWeather, © 2016

Note: Actual official high and low records may vary slightly from our data, if they occured in-between our weather recording intervals... More about our weather records

Advertising

Stäfa Weather History for the Previous 24 Hours

Scroll right to see more
 ConditionsComfort  
Time TempWeatherWind HumidityBarometerVisibility
11:00 AM
Tue, May 31
62 °FCool.7 mph62%29.85 "HgN/A
9:00 AM59 °FCool.8 mph69%29.86 "HgN/A
8:00 AM56 °FCool.5 mph80%29.85 "HgN/A
7:00 AM53 °FCool.3 mph92%29.86 "HgN/A
6:00 AM53 °FCool.1 mph90%29.85 "HgN/A
5:00 AM53 °FCool.3 mph82%29.84 "HgN/A
4:00 AM54 °FCool.6 mph79%29.83 "HgN/A
3:00 AM54 °FCool.6 mph79%29.83 "HgN/A
2:00 AM54 °FCool.3 mph79%29.83 "HgN/A
1:00 AM56 °FCool.6 mph76%29.83 "HgN/A
12:00 AM56 °FCool.10 mph73%29.83 "HgN/A
11:00 PM
Mon, May 30
56 °FCool.5 mph76%29.83 "HgN/A
10:00 PM57 °FCool.5 mph76%29.82 "HgN/A
9:00 PM58 °FCool.8 mph72%29.80 "HgN/A
8:00 PM60 °FPartly sunny.10 mph69%29.78 "HgN/A
7:00 PM61 °FCool.13 mph66%29.76 "HgN/A
6:00 PM62 °FCool.14 mph64%29.76 "HgN/A
5:00 PM63 °FMild.16 mph61%29.75 "HgN/A
4:00 PM63 °FMild.15 mph61%29.75 "HgN/A
3:00 PM63 °FMild.15 mph63%29.74 "HgN/A
2:00 PM63 °FOvercast.15 mph64%29.74 "HgN/A
1:00 PM64 °FMild.14 mph65%29.73 "HgN/A
Weather by CustomWeather, © 2016

See weather overviewHow to use our weather pages